Location: Banff
(51.1667°N, 115.5667°W)
Time: 11:24:20
(UTC+00:00)

SR - Pass Details

Date: 04 December 2020
Orbit: 575 x 880 km, 66.7° (Epoch: 20 January)

Event Time Altitude Azimuth Distance (km) Brightness Sun altitude
Rises 03:57:52 0° 282° (WNW) 2,933 ? -39.7°
Reaches altitude 10° 04:00:54 10° 304° (NW) 2,082 ? -40.2°
Enters shadow 04:01:11 11° 307° (NW) 2,021 ? -40.2°
